Location: Bühlhof
(48.7849°N, 8.6361°E)
Time: 05:03:00
(UTC+00:00)

NOSS 3-1 (C) - Visible Passes

Search period start: 21 April 2026 00:00
Search period end: 01 May 2026 00:00
Orbit: 618 x 1583 km, 63.4° (Epoch: 10 January)

Date Brightness Start Highest point End Pass type
(mag) Time Alt. Az. Time Alt. Az. Time Alt. Az.
21 Apr 4.0 20:07:59 10° NW 20:14:52 78° NE 20:20:30 24° SE visible
21 Apr 5.1 21:59:03 10° NW 22:05:29 33° WSW 22:07:50 28° SW visible
22 Apr 4.2 19:21:35 10° NW 19:28:12 58° NE 19:35:43 13° ESE visible
22 Apr 4.6 21:12:16 10° NW 21:19:08 48° WSW 21:23:03 30° S visible
22 Apr 6.1 23:07:14 10° W 23:08:50 11° WSW 23:10:22 10° WSW visible
23 Apr 4.2 20:25:40 10° NW 20:32:40 68° SW 20:38:17 24° SSE visible
23 Apr 5.8 22:17:55 10° WNW 22:22:48 18° WSW 22:25:37 15° SW visible
24 Apr 4.0 19:39:10 10° NW 19:46:08 88° NE 19:53:36 15° SE visible
24 Apr 5.4 21:30:30 10° WNW 21:36:36 28° WSW 21:40:55 19° SSW visible
25 Apr 4.2 18:52:45 10° NW 18:59:29 66° NE 19:08:00 10° SE visible
25 Apr 4.9 20:43:35 10° NW 20:50:18 41° WSW 20:56:17 18° S visible
26 Apr 4.5 19:56:54 10° NW 20:03:53 59° SW 20:11:43 13° SSE visible
26 Apr 6.1 21:49:50 10° WNW 21:53:50 15° WSW 21:58:10 10° SW visible
27 Apr 4.2 19:10:22 10° NW 19:17:22 82° SW 19:26:07 10° SE visible
27 Apr 5.7 21:02:00 10° WNW 21:07:42 24° WSW 21:14:12 10° SSW visible
28 Apr 5.3 20:14:54 10° NW 20:21:26 35° WSW 20:29:10 10° S visible
29 Apr 4.8 19:28:09 10° NW 19:35:03 51° WSW 19:43:29 10° SSE visible
29 Apr 6.3 21:22:14 10° W 21:24:50 12° WSW 21:27:33 10° WSW visible
30 Apr 6.0 20:33:37 10° WNW 20:38:46 20° WSW 20:44:31 10° SSW visible
